This is the latest recevied weather packets stored in our database for station/object W6SNO-1. If no packets are shown the sender has not sent any weather packets the latest 10 day(s).
| Time | Temp. | Humidity | Pressure | Rain* | Wind** | Luminosity | Snow |
|---|---|---|---|---|---|---|---|
| 1787414485 | 16.11° C | 84% | 1018.5 hPa | 0 mm | - | 32 W/m² | - |
| 1787414184 | 16.11° C | 85% | 1018.6 hPa | 0 mm | - | 32 W/m² | - |
| 1787413883 | 16.11° C | 85% | 1018.7 hPa | 0 mm | - | 31 W/m² | - |
| 1787412369 | 15° C | 89% | 1018.7 hPa | 0 mm | - | 28 W/m² | - |
| 1787412065 | 15° C | 89% | 1018.6 hPa | 0 mm | - | 28 W/m² | - |
| 1787403251 | 13.33° C | 94% | 1018.3 hPa | 0 mm | - | 0 W/m² | - |
| 1787402948 | 13.33° C | 94% | 1018.2 hPa | 0 mm | - | 0 W/m² | - |
| 1787402037 | 13.89° C | 93% | 1018.1 hPa | 0 mm | - | 0 W/m² | - |
| 1787401732 | 13.89° C | 93% | 1018.2 hPa | 0 mm | - | 0 W/m² | - |
| 1787395348 | 13.89° C | 92% | 1017.6 hPa | 0 mm | - | 0 W/m² | - |
| 1787395041 | 13.89° C | 92% | 1017.6 hPa | 0 mm | - | 0 W/m² | - |
| 1787394738 | 13.89° C | 93% | 1017.6 hPa | 0 mm | - | 0 W/m² | - |
| 1787394434 | 13.89° C | 93% | 1017.7 hPa | 0 mm | - | 0 W/m² | - |
| 1787393524 | 13.89° C | 92% | 1017.6 hPa | 0 mm | - | 0 W/m² | - |
| 1787393220 | 13.89° C | 92% | 1017.3 hPa | 0 mm | - | 0 W/m² | - |
| 1787392915 | 13.89° C | 92% | 1017.4 hPa | 0 mm | - | 0 W/m² | - |
| 1787392613 | 13.89° C | 92% | 1017.4 hPa | 0 mm | - | 0 W/m² | - |
| 1787391396 | 14.44° C | 92% | 1017.6 hPa | 0 mm | - | 0 W/m² | - |
| 1787391093 | 14.44° C | 92% | 1017.5 hPa | 0 mm | - | 0 W/m² | - |
| 1787390185 | 13.89° C | 92% | 1017.6 hPa | 0 mm | - | 0 W/m² | - |
| 1787389881 | 13.89° C | 92% | 1017.7 hPa | 0 mm | - | 0 W/m² | - |
| 1787389274 | 13.89° C | 92% | 1017.5 hPa | 0 mm | - | 0 W/m² | - |
| 1787388969 | 13.89° C | 92% | 1017.6 hPa | 0 mm | - | 0 W/m² | - |
| 1787388665 | 13.89° C | 92% | 1017.8 hPa | 0 mm | - | 0 W/m² | - |
| 1787388361 | 13.89° C | 92% | 1017.7 hPa | 0 mm | - | 0 W/m² | - |
* Rain latest hour (hover to see other rain measurements)
** Current wind speed in m/s (hover to see current wind gust speed)